Simultaneous Nadir Overpasses (SNOs) Predictions

Prediction of SNOs between GOES-14 and NOAA-20 Satellite Orbit:

Table of predicted SNOs for the next 14.0 days since TLE Epoch: 11/7/2020
Index Date Time (GOES-14) GOES-14 Lat,Lon NOAA-20 Lat,Lon Distance(km) Time Diff (sec)
1 11/08/2020 20:20:28 -0.08,-104.22 -0.09,-104.30 9.27 80
2 11/11/2020 08:26:13 0.06,-104.37 0.23,-105.05 77.84 80
3 11/12/2020 08:04:49 0.08,-104.35 -0.77,-100.51 437.44 80
4 11/13/2020 20:26:46 -0.05,-104.19 -0.40,-105.83 186.37 80
5 11/14/2020 20:10:41 -0.07,-104.19 0.60,-101.29 330.61 80
6 11/16/2020 08:32:31 0.04,-104.36 0.53,-106.57 251.95 80
7 11/17/2020 08:11:06 0.06,-104.35 -0.46,-102.04 263.17 80
8 11/18/2020 20:33:03 -0.03,-104.15 -0.75,-107.34 363.99 80
9 11/19/2020 20:16:58 -0.04,-104.15 0.25,-102.81 152.78 80
